FENGYUN 1C DEB

Satellite information

Favourite Embed

Satellite Type and Status

DEBRISIN ORBIT

Key statistics

Satellite FENGYUN 1C DEB at a glance.

Uptime

9715

Days in orbit

Revolutions

≈ 14.8

Per day

Orbit

SSO

Sun Synchronous Orbit

Inclination

98.8

Latest

Satellite identification and parameters

Extended collection of information and parameters for FENGYUN 1C DEB.

Object identification

Identified? True

Debris? True

Object name: FENGYUN 1C DEB

International designator: 1999-025AEH

Object number (NORAD): 30418

Object ID (CCSDS): 30418

Country: PEOPLES REPUBLIC OF CHINA (PRC)

Current information (Y/N): Y

RCS size: SMALL

Orbital parameters

Period: 97.023 minutes

Inclination: 98.8409 deg

SMA: 6994.285 km

Apoapsis: 693.952 km

Periapsis: 538.348 km

RAAN: 145.7096 deg

Eccentricy: 0.0111236

Argument of periapsis: 117.9516 deg

Mean anomaly: 2.2376 deg

Mean motion: 14.84184085 rev/day

Mean motion (dot): 0.00012824 rev/day2

B* drag term: 0.001379 1/REarth

Two-line elements (TLE)

Creation date: Dec. 12, 2025, 7:26 a.m.

Reference frame: TEME

Reference center: EARTH

Epoch: Dec. 12, 2025, 12:07 a.m. UTC

TLE line 0: 0 FENGYUN 1C DEB

TLE line 1: 1 30418U 99025AEH 25346.00512101 .00012824 00000-0 13790-2 0 9990

TLE line 2: 2 30418 98.8409 145.7096 0111236 117.9516 2.2376 14.84184085 5819

Live tracking on map

Real-time ground track for satellite FENGYUN 1C DEB.

In-orbit conjunctions

A list of the most updated potential collisions computed for object FENGYUN 1C DEB.

Target Orbit TCA Probability of collision Miss distance Type
DNEPR 1 R/B LEO 2025-10-01 03:31:17 0.0003595747 442.0 (m) ROCKET BODY
CZ-6A DEB LEO 2025-02-02 16:55:12 0.000231414 221.0 (m) DEBRIS
COSMOS 2251 DEB LEO 2024-09-28 09:32:19 0.000180309 541.0 (m) DEBRIS

Associated space launch

Chinese polar orbiting meteorological satellite

FENGYUN 1C DEB was lifted into orbit during the mission ‘Long March 4B | Feng Yun 1C’, on board a Long March 4B space rocket.

The launch took place on May 10, 1999, 1:33 a.m. from Launch Complex 7.

For more information about the launch, click the button.

Launch to space Long March 4B | Feng Yun 1C
Long March 4B | Feng Yun 1C

Agency: N/A

Status: Launch Successful

Launch date: May 10, 1999, 1:33 a.m. UTC

Rocket: Long March 4B

Launch pad: Launch Complex 7

Location: Taiyuan Satellite Launch Center, People's Republic of China

...

Latest news about this satellite

There are no fresh news available about this satellite. Check back as we update our databases every day.


Newsletter sign-up

Weekly statistics, charts and insights to help you stay on top of the space industry.